TimePDT,TemperatureF,Dew PointF,Humidity,Sea Level PressureIn,VisibilityMPH,Wind Direction,Wind SpeedMPH,Gust SpeedMPH,PrecipitationIn,Events,Conditions,WindDirDegrees,DateUTC
12:15 AM,55.4,46.4,72,30.06,10.0,NW,5.8,-,N/A,,Clear,310,2013-03-21 07:15:00
12:35 AM,53.6,46.4,77,30.06,10.0,NW,8.1,-,N/A,,Clear,310,2013-03-21 07:35:00
12:55 AM,53.6,46.4,77,30.06,10.0,NW,8.1,-,N/A,,Clear,320,2013-03-21 07:55:00
1:15 AM,53.6,46.4,77,30.06,10.0,NW,6.9,-,N/A,,Clear,320,2013-03-21 08:15:00
1:35 AM,53.6,46.4,77,30.06,10.0,NW,8.1,-,N/A,,Clear,320,2013-03-21 08:35:00
1:55 AM,53.6,46.4,77,30.05,10.0,NW,8.1,-,N/A,,Clear,310,2013-03-21 08:55:00
2:15 AM,53.6,46.4,77,30.05,10.0,NW,8.1,-,N/A,,Clear,310,2013-03-21 09:15:00
2:35 AM,53.6,46.4,77,30.05,10.0,NW,6.9,-,N/A,,Clear,320,2013-03-21 09:35:00
2:55 AM,51.8,46.4,82,30.05,10.0,NW,6.9,-,N/A,,Clear,320,2013-03-21 09:55:00
3:15 AM,53.6,46.4,77,30.05,10.0,NW,9.2,-,N/A,,Clear,310,2013-03-21 10:15:00
3:35 AM,51.8,46.4,82,30.05,10.0,NW,5.8,-,N/A,,Clear,320,2013-03-21 10:35:00
3:55 AM,51.8,46.4,82,30.05,10.0,NW,9.2,-,N/A,,Clear,320,2013-03-21 10:55:00
4:15 AM,53.6,48.2,82,30.04,8.0,NNW,8.1,-,N/A,,Clear,330,2013-03-21 11:15:00
4:35 AM,51.8,46.4,82,30.03,8.0,NW,8.1,-,N/A,,Clear,320,2013-03-21 11:35:00
4:55 AM,51.8,46.4,82,30.04,7.0,NW,5.8,-,N/A,,Clear,310,2013-03-21 11:55:00
5:15 AM,51.8,46.4,82,30.03,7.0,NW,6.9,-,N/A,,Clear,310,2013-03-21 12:15:00
5:35 AM,51.8,46.4,82,30.03,7.0,NW,8.1,-,N/A,,Clear,310,2013-03-21 12:35:00
5:55 AM,51.8,46.4,82,30.04,8.0,NW,8.1,-,N/A,,Clear,310,2013-03-21 12:55:00
6:15 AM,51.8,46.4,82,30.05,8.0,NW,6.9,-,N/A,,Clear,310,2013-03-21 13:15:00
6:35 AM,51.8,44.6,76,30.05,8.0,NNW,9.2,-,N/A,,Clear,330,2013-03-21 13:35:00
6:55 AM,50.0,44.6,82,30.05,9.0,NW,6.9,-,N/A,,Clear,320,2013-03-21 13:55:00
7:15 AM,48.2,44.6,87,30.06,8.0,NNW,5.8,-,N/A,,Clear,340,2013-03-21 14:15:00
7:35 AM,50.0,44.6,82,30.06,9.0,Calm,Calm,-,N/A,,Clear,0,2013-03-21 14:35:00
7:55 AM,51.8,44.6,76,30.06,9.0,NW,3.5,-,N/A,,Clear,320,2013-03-21 14:55:00
8:15 AM,51.8,46.4,82,30.07,10.0,North,3.5,-,N/A,,Partly Cloudy,350,2013-03-21 15:15:00
8:35 AM,51.8,46.4,82,30.07,10.0,Calm,Calm,-,N/A,,Mostly Cloudy,0,2013-03-21 15:35:00
8:55 AM,53.6,46.4,77,30.06,10.0,North,4.6,-,N/A,,Overcast,350,2013-03-21 15:55:00
9:35 AM,53.6,46.4,77,30.06,10.0,NNW,10.4,-,N/A,,Mostly Cloudy,340,2013-03-21 16:35:00
9:55 AM,55.4,46.4,72,30.07,10.0,NW,6.9,-,N/A,,Mostly Cloudy,320,2013-03-21 16:55:00
10:15 AM,57.2,46.4,67,30.07,10.0,NNW,9.2,-,N/A,,Mostly Cloudy,330,2013-03-21 17:15:00
10:35 AM,57.2,46.4,67,30.06,10.0,NNW,6.9,-,N/A,,Mostly Cloudy,330,2013-03-21 17:35:00
10:55 AM,59.0,46.4,63,30.06,10.0,NW,9.2,-,N/A,,Mostly Cloudy,310,2013-03-21 17:55:00
11:15 AM,60.8,46.4,59,30.06,10.0,NW,10.4,-,N/A,,Mostly Cloudy,310,2013-03-21 18:15:00
11:35 AM,60.8,48.2,63,30.05,10.0,NW,5.8,-,N/A,,Mostly Cloudy,310,2013-03-21 18:35:00
11:55 AM,62.6,48.2,59,30.05,10.0,North,10.4,-,N/A,,Mostly Cloudy,350,2013-03-21 18:55:00
12:15 PM,62.6,48.2,59,30.05,10.0,North,8.1,-,N/A,,Mostly Cloudy,10,2013-03-21 19:15:00
12:35 PM,62.6,48.2,59,30.04,10.0,NNE,8.1,-,N/A,,Mostly Cloudy,20,2013-03-21 19:35:00
12:55 PM,62.6,48.2,59,30.03,10.0,NNW,8.1,-,N/A,,Overcast,340,2013-03-21 19:55:00
1:15 PM,62.6,48.2,59,30.02,10.0,North,6.9,-,N/A,,Mostly Cloudy,350,2013-03-21 20:15:00
1:35 PM,64.4,48.2,56,30.02,10.0,NW,6.9,-,N/A,,Scattered Clouds,320,2013-03-21 20:35:00
1:55 PM,66.2,48.2,52,30.01,10.0,NNE,11.5,-,N/A,,Mostly Cloudy,20,2013-03-21 20:55:00
2:15 PM,64.4,48.2,56,30.01,10.0,North,9.2,-,N/A,,Mostly Cloudy,360,2013-03-21 21:15:00
2:35 PM,64.4,48.2,56,30.00,10.0,NNW,6.9,-,N/A,,Mostly Cloudy,330,2013-03-21 21:35:00
2:55 PM,64.4,48.2,56,30.00,10.0,North,8.1,16.1,N/A,,Mostly Cloudy,10,2013-03-21 21:55:00
3:15 PM,64.4,48.2,56,29.99,10.0,ENE,8.1,-,N/A,,Mostly Cloudy,60,2013-03-21 22:15:00
3:35 PM,66.2,50.0,56,29.98,10.0,NE,8.1,-,N/A,,Mostly Cloudy,40,2013-03-21 22:35:00
3:55 PM,66.2,48.2,52,29.98,10.0,NE,4.6,-,N/A,,Partly Cloudy,50,2013-03-21 22:55:00
4:15 PM,66.2,48.2,52,29.97,10.0,NE,8.1,-,N/A,,Partly Cloudy,50,2013-03-21 23:15:00
4:35 PM,66.2,48.2,52,29.97,10.0,ENE,8.1,-,N/A,,Partly Cloudy,60,2013-03-21 23:35:00
4:55 PM,66.2,48.2,52,29.97,10.0,NNE,4.6,-,N/A,,Clear,30,2013-03-21 23:55:00
5:15 PM,66.2,48.2,52,29.96,10.0,Calm,Calm,-,N/A,,Clear,0,2013-03-22 00:15:00
5:35 PM,66.2,48.2,52,29.96,10.0,North,3.5,-,N/A,,Clear,10,2013-03-22 00:35:00
5:55 PM,66.2,48.2,52,29.95,10.0,Calm,Calm,-,N/A,,Clear,0,2013-03-22 00:55:00
6:15 PM,66.2,46.4,49,29.95,10.0,Calm,Calm,-,N/A,,Clear,0,2013-03-22 01:15:00
6:35 PM,66.2,46.4,49,29.95,10.0,West,5.8,-,N/A,,Scattered Clouds,280,2013-03-22 01:35:00
6:55 PM,64.4,44.6,49,29.95,10.0,WNW,10.4,-,N/A,,Partly Cloudy,300,2013-03-22 01:55:00
7:15 PM,62.6,42.8,48,29.96,10.0,WNW,10.4,-,N/A,,Clear,300,2013-03-22 02:15:00
7:35 PM,60.8,39.2,45,29.96,10.0,WNW,10.4,-,N/A,,Clear,300,2013-03-22 02:35:00
7:55 PM,59.0,39.2,48,29.97,10.0,WNW,10.4,-,N/A,,Clear,300,2013-03-22 02:55:00
8:15 PM,57.2,39.2,51,29.98,10.0,WNW,10.4,-,N/A,,Clear,300,2013-03-22 03:15:00
8:35 PM,57.2,39.2,51,29.98,10.0,WNW,8.1,-,N/A,,Clear,300,2013-03-22 03:35:00
8:55 PM,55.4,39.2,54,29.99,10.0,NW,6.9,-,N/A,,Clear,310,2013-03-22 03:55:00
9:15 PM,55.4,39.2,54,29.99,10.0,NW,8.1,-,N/A,,Clear,310,2013-03-22 04:15:00
9:35 PM,53.6,41.0,62,29.99,10.0,NW,6.9,-,N/A,,Clear,320,2013-03-22 04:35:00
9:55 PM,55.4,41.0,58,29.99,10.0,NW,9.2,-,N/A,,Clear,310,2013-03-22 04:55:00
10:15 PM,53.6,41.0,62,29.99,10.0,NW,8.1,-,N/A,,Clear,320,2013-03-22 05:15:00
10:35 PM,53.6,41.0,62,29.99,10.0,WNW,5.8,-,N/A,,Clear,300,2013-03-22 05:35:00
10:55 PM,53.6,41.0,62,29.99,10.0,WNW,4.6,-,N/A,,Clear,300,2013-03-22 05:55:00
11:15 PM,51.8,41.0,67,29.99,10.0,WNW,5.8,-,N/A,,Clear,290,2013-03-22 06:15:00
11:35 PM,51.8,39.2,62,29.99,10.0,Calm,Calm,-,N/A,,Clear,0,2013-03-22 06:35:00
11:55 PM,51.8,39.2,62,29.99,10.0,WNW,5.8,-,N/A,,Clear,300,2013-03-22 06:55:00